Temperature
26 26 26 27 28 28 28 28 28 28 29 29 28 26 26 26 25 24 23 22 21 19 18 18 17 17 17 16 16 16 17 16 16 16 16 16 16 15 15 15 16 16 16 16
27 26 28 29 29 28 28 28 28 28 29 29 28 27 26 26 25 24 23 22 21 19 18 17 17 16 16 16 16 16 16 16 16 16 16 15 15 15 15 15 15 15 15 15
26 27 28 28 28 28 28 28 28 28 28 28 27 26 25 26 25 25 24 23 21 20 18 17 16 16 16 15 15 16 16 16 16 16 16 15 15 15 15 15 15 15 15 15
27 28 28 27 27 27 27 28 28 28 27 26 27 25 25 25 25 25 24 23 21 20 18 17 16 16 15 15 15 15 15 15 15 15 15 15 15 14 14 14 14 14 14 14
27 28 27 27 27 28 27 29 28 27 27 26 26 25 25 25 24 24 23 22 21 19 18 17 16 16 15 15 14 14 15 15 15 15 15 14 14 14 14 14 14 14 14 14
27 28 28 28 28 28 28 28 28 27 26 25 25 25 24 23 23 22 22 22 20 19 18 17 16 15 15 14 14 14 14 14 14 14 14 14 14 14 13 13 13 13 13 13
26 27 28 28 27 27 27 26 24 23 23 23 24 24 23 23 23 23 22 21 19 18 17 16 15 15 14 13 13 13 13 13 13 13 13 13 13 13 13 12 12 12 12 13
23 25 26 27 27 26 26 26 23 22 21 22 23 23 23 23 22 22 21 20 19 18 17 16 15 14 14 13 13 13 13 13 13 13 13 13 12 12 12 12 12 12 12 12
23 24 26 27 27 26 25 25 25 23 22 22 23 22 22 22 22 21 20 19 18 17 16 15 14 14 13 13 13 13 12 12 12 12 12 12 12 12 12 12 11 11 11 11
24 23 25 26 27 27 26 25 24 23 21 20 22 20 20 20 20 21 20 18 18 17 16 15 14 13 13 12 12 12 12 12 11 11 11 11 11 11 11 11 11 11 11 11
24 22 24 25 25 25 25 25 24 24 23 21 21 20 21 20 20 20 19 18 17 16 15 14 13 13 12 12 12 12 11 11 11 11 11 11 11 11 11 11 11 11 11 11
24 23 22 24 25 26 25 25 24 23 23 23 22 20 21 20 20 20 19 17 16 15 14 14 13 12 12 12 11 11 11 11 11 10 10 10 10 10 10 10 10 10 10 10
24 22 21 22 23 24 24 24 24 24 23 22 21 20 21 20 19 18 17 16 15 14 14 13 12 12 12 11 11 11 11 10 10 10 10 10 10 10 10 10 10 10 10 10
22 22 20 20 20 22 22 23 24 23 22 21 21 20 20 19 19 17 16 15 14 13 13 12 12 12 11 11 11 11 10 10 10 10 10 10 10 10 10 9 9 9 9 9
23 21 21 21 22 23 22 23 23 23 22 21 21 20 19 19 18 17 16 14 14 13 12 12 12 11 11 11 10 10 10 10 10 9 9 9 9 9 9 9 9 9 9 9
22 21 21 20 22 23 22 23 23 23 22 21 21 19 20 19 18 17 15 14 14 13 12 12 11 11 10 10 10 10 10 9 9 9 9 9 9 9 9 9 9 8 8 8
22 21 20 20 22 22 20 22 22 22 22 21 20 19 19 18 18 16 15 14 14 13 12 11 11 10 10 10 9 9 9 9 9 9 9 9 8 8 8 8 8 8 8 8
21 20 20 20 20 19 21 22 22 22 21 21 20 19 18 17 16 15 15 14 13 13 12 11 11 10 10 9 9 9 9 9 9 9 9 8 8 8 8 8 8 8 8 8
22 20 19 19 19 19 20 21 21 21 20 20 20 19 18 17 16 14 14 13 13 12 11 10 10 10 9 9 9 9 9 8 8 8 8 8 8 8 8 8 7 7 7 7
22 21 20 19 18 18 19 21 21 21 19 19 19 18 17 17 16 14 13 12 12 11 10 10 10 9 9 9 8 8 8 8 8 8 8 8 8 7 7 7 7 7 7 7
21 21 20 19 19 19 20 21 21 19 17 18 18 17 17 16 15 13 12 11 11 10 10 10 9 9 9 9 8 8 8 8 8 8 8 7 7 7 7 7 7 7 7 7
21 20 20 20 19 18 19 20 19 17 18 17 17 16 15 14 13 12 12 11 10 10 9 9 9 9 8 8 8 8 8 8 8 8 7 7 7 7 7 7 7 7 7 7
21 20 20 19 18 18 18 18 18 17 17 17 16 15 14 13 13 12 11 10 10 10 9 9 9 8 8 8 8 8 8 8 8 7 7 7 7 7 7 7 7 7 7 7
21 21 20 19 19 19 18 18 17 17 16 16 15 15 14 13 12 11 11 10 10 9 9 9 9 8 8 8 8 8 8 8 7 7 7 7 7 7 7 7 7 7 7 7
21 21 20 19 19 19 18 17 17 16 16 15 15 14 13 13 12 11 10 10 10 9 9 9 9 8 8 8 8 8 8 7 7 7 7 7 7 7 7 7 7 7 7 8
21 20 20 19 19 19 17 17 16 16 15 15 14 14 13 12 12 11 10 10 9 9 9 9 9 8 8 8 8 8 8 7 7 7 7 7 7 7 7 7 7 8 8 8
Wind_Speed
11 12 11 12 13 14 13 12 12 10 12 13 12 12 13 13 12 11 11 12 14 14 13 10 9 9 9 8 7 6 5 4 2 1 1 1 1 1 2 3 4 3 2 1
11 13 13 11 11 13 14 13 11 8 8 9 9 10 12 12 13 11 11 13 14 14 13 11 10 9 8 7 7 6 5 4 2 2 1 0 0 0 2 2 3 3 1 2
12 8 8 10 10 11 12 11 10 7 7 9 9 10 11 13 12 12 12 14 16 16 15 13 10 9 9 7 7 6 5 5 3 2 1 1 1 0 2 2 2 3 2 2
10 8 7 9 10 10 11 10 9 9 9 8 10 11 13 14 13 12 11 12 14 15 15 13 11 10 9 8 7 7 6 5 4 3 3 2 1 1 1 1 1 2 1 2
9 8 8 10 10 10 11 9 9 10 11 11 11 11 9 13 12 10 9 10 13 14 14 13 12 10 9 9 8 7 6 6 5 5 5 4 4 3 2 2 2 1 0 1
13 9 8 9 8 9 10 11 10 10 11 14 14 13 8 7 8 10 10 11 13 14 13 12 11 11 10 9 8 7 7 6 5 5 6 5 4 4 3 4 3 2 1 0
12 11 9 8 9 9 10 10 7 7 9 11 11 9 4 6 8 9 10 12 13 13 13 13 12 11 10 8 7 6 6 5 4 5 5 4 4 3 3 4 4 3 2 2
9 9 8 9 9 8 10 11 8 7 8 9 9 7 4 5 7 9 11 12 13 13 13 13 11 10 10 9 7 6 5 4 4 4 4 3 4 3 3 5 4 4 3 3
7 8 7 8 9 10 10 10 9 7 10 10 7 2 2 6 9 11 13 13 13 12 13 13 12 10 9 9 7 6 5 4 4 4 3 3 4 4 4 4 4 4 4 3
7 9 10 9 8 10 10 10 8 7 7 9 7 4 2 5 7 10 12 12 12 13 13 12 11 10 9 8 7 6 4 4 3 3 3 4 4 3 3 3 4 4 4 4
6 7 9 8 9 9 9 9 8 8 7 8 7 2 1 5 7 9 11 12 13 14 13 12 10 9 9 8 6 5 4 3 4 4 4 4 4 3 3 3 4 4 4 4
5 5 8 9 8 8 8 9 8 7 8 7 6 1 1 4 7 8 11 12 13 14 13 12 10 9 8 7 6 5 4 4 4 4 4 4 4 4 4 4 4 4 4 4
5 4 7 7 5 6 7 8 8 7 6 6 7 2 2 5 8 8 10 12 13 13 12 11 9 8 7 6 5 4 4 4 3 4 4 4 4 4 4 4 4 4 4 4
4 6 6 8 7 7 8 10 8 7 5 6 6 4 4 5 8 8 10 11 12 12 12 10 9 7 7 6 4 3 4 4 3 4 4 4 4 4 4 4 4 4 4 4
4 7 7 9 10 8 9 9 8 5 4 5 3 1 3 5 7 9 10 12 12 12 11 10 9 7 6 5 4 4 4 4 3 3 4 4 4 4 4 4 4 4 4 4
3 6 7 8 9 7 8 7 8 6 4 3 1 1 2 4 8 10 10 11 12 12 11 10 10 9 7 5 5 4 4 3 3 3 3 4 4 4 4 3 4 4 4 4
4 5 7 8 8 6 5 5 5 4 4 3 1 1 2 4 7 9 9 9 10 11 11 10 9 8 6 5 4 4 3 3 3 3 3 3 3 3 3 4 4 5 5 5
5 5 5 7 6 5 1 4 3 3 3 4 5 5 5 6 7 8 8 9 9 9 10 9 8 7 6 5 4 4 3 3 3 3 3 3 3 4 3 3 4 4 4 5
4 4 4 4 4 3 1 4 5 3 4 6 5 6 6 7 7 8 8 8 8 9 10 9 8 8 6 5 4 3 3 3 3 3 3 4 4 4 4 4 4 4 4 4
6 5 5 4 3 2 1 3 5 2 2 6 5 4 4 4 3 5 8 10 11 10 9 9 8 8 6 5 4 3 3 3 3 3 4 4 3 3 4 4 3 3 3 3
5 6 6 6 4 0 3 5 4 2 2 4 3 3 4 3 4 9 11 11 11 11 10 9 8 7 6 5 4 3 4 3 4 4 4 4 4 3 4 4 3 2 3 3
2 3 3 4 2 1 7 5 5 4 4 4 5 7 9 11 12 12 12 11 11 11 9 8 7 6 5 5 4 4 4 4 4 4 4 4 3 3 4 3 2 2 2 3
0 1 2 2 2 4 6 6 6 5 5 5 6 8 10 11 11 11 11 10 10 9 8 7 7 6 5 4 4 4 4 4 4 4 4 3 3 3 3 2 2 2 1 1
2 1 1 2 4 5 6 7 7 7 6 6 7 7 9 11 11 10 10 9 8 8 7 6 6 6 5 5 5 5 5 4 4 4 3 3 3 4 3 2 2 2 2 2
1 1 1 3 5 5 6 6 7 7 7 8 8 8 9 11 10 10 9 8 8 7 6 6 5 5 6 5 5 5 5 4 4 3 3 3 3 4 3 4 4 4 4 3
1 1 0 2 4 4 6 6 7 7 7 8 8 9 9 9 10 10 9 8 8 7 6 6 6 6 6 6 5 5 5 5 4 3 3 3 3 3 3 4 4 6 4 5
Wind_Direction
217 231 234 228 226 246 253 250 241 226 194 199 203 186 183 180 176 177 176 159 144 140 135 129 120 116 116 112 109 105 98 95 89 79 72 95 81 85 88 93 82 61 34 337
225 233 243 244 237 247 260 255 248 225 204 207 212 200 183 185 187 188 182 161 151 141 134 132 131 129 124 120 117 113 103 96 87 78 62 87 80 103 105 74 89 77 21 310
235 237 241 249 244 249 258 256 253 237 209 215 226 221 193 193 195 194 189 169 157 148 145 144 143 133 125 120 110 101 88 83 68 59 71 58 97 328 93 85 95 62 15 342
244 241 237 243 246 247 255 256 257 249 234 229 223 236 208 199 195 199 189 167 155 148 146 147 139 132 121 113 106 96 87 75 57 46 45 38 58 54 44 45 59 57 8 338
256 236 235 241 244 248 262 260 251 255 251 249 237 244 229 194 198 198 181 169 153 146 145 143 139 133 123 114 105 101 93 79 63 50 47 33 32 27 15 16 29 24 216 355
263 254 239 247 247 245 265 269 258 256 257 250 249 242 224 198 197 192 183 171 153 146 142 138 133 125 115 109 104 97 88 80 69 60 56 43 27 24 12 357 352 343 335 17
262 248 236 240 245 242 249 254 252 250 249 257 271 255 220 189 179 176 172 157 149 148 143 139 136 130 121 114 106 99 93 85 77 72 64 47 23 12 10 356 356 351 346 9
268 255 231 233 242 249 248 246 243 255 261 269 268 258 202 163 137 138 138 141 145 147 144 138 134 131 128 119 109 103 99 89 80 73 62 46 28 20 26 16 354 349 353 6
275 276 268 245 233 243 248 255 251 253 270 271 258 263 109 115 135 136 136 140 148 144 138 135 134 132 127 122 116 108 98 88 78 73 62 58 42 31 24 8 359 2 1 356
267 285 268 259 247 240 244 253 269 253 261 272 272 238 197 169 156 147 142 146 146 138 134 133 135 133 128 127 124 120 108 98 85 73 52 59 50 39 27 14 12 6 2 359
261 278 278 262 256 253 253 245 254 268 262 269 276 256 232 187 162 163 153 146 142 140 139 136 135 133 129 129 129 127 119 104 86 72 59 49 36 31 26 21 16 8 1 357
262 273 277 270 275 277 270 274 268 267 276 285 293 284 63 142 148 146 142 140 138 137 136 132 130 129 126 122 114 111 108 92 84 80 74 62 38 26 23 27 24 14 5 0
318 289 287 282 279 274 272 272 279 276 287 289 287 271 93 113 117 120 124 128 130 128 125 126 126 125 120 117 113 110 102 89 82 77 70 57 40 33 28 24 20 17 8 2
294 281 276 267 269 272 278 284 281 276 274 277 274 232 156 122 118 120 118 124 127 129 128 129 127 121 120 118 114 111 99 85 74 66 62 56 43 38 36 30 23 18 11 12
281 278 277 278 278 276 272 281 292 289 286 293 298 205 144 126 129 132 132 138 138 137 138 137 131 127 124 122 119 105 88 76 67 60 54 54 49 48 46 36 26 23 14 18
262 284 289 281 277 273 289 291 289 291 278 261 268 33 95 108 126 130 138 147 146 146 144 140 137 138 138 134 124 107 99 97 88 73 60 54 47 50 51 33 27 32 23 20
275 288 293 279 274 273 279 294 299 312 344 358 1 96 99 102 116 131 142 149 148 147 144 142 138 132 126 118 111 112 105 106 100 87 68 62 49 53 56 41 42 37 30 29
276 282 276 280 281 264 296 353 356 6 46 75 86 96 96 96 102 113 127 133 140 144 141 135 130 127 122 116 109 104 101 103 97 89 78 67 59 57 64 60 51 46 37 36
231 254 275 282 280 272 319 353 349 344 53 64 87 94 100 113 118 105 107 118 126 128 129 128 128 126 125 120 113 111 103 90 87 83 77 68 63 58 67 72 59 56 54 55
212 226 250 269 284 273 357 339 316 297 97 52 69 102 116 149 168 133 123 120 118 118 121 125 127 126 125 120 126 130 122 106 95 86 77 71 70 68 73 71 67 65 63 69
224 234 248 264 260 110 357 338 316 300 61 32 51 75 95 88 98 125 125 121 121 122 125 127 126 128 130 135 139 132 119 105 94 85 77 76 78 85 86 77 73 81 72 72
260 279 281 282 278 18 11 15 39 64 67 55 65 85 98 104 112 118 122 124 127 129 132 131 130 130 131 136 140 126 112 104 102 95 88 84 85 96 95 95 88 82 93 93
55 16 349 31 84 90 62 69 78 81 75 73 83 96 111 116 119 120 123 127 130 133 135 136 137 136 139 145 144 124 117 115 109 105 95 91 91 84 92 118 122 106 89 84
142 111 130 114 112 105 89 86 79 78 84 88 95 105 114 116 121 124 126 128 131 133 138 141 142 138 136 137 133 127 128 126 121 118 117 117 111 101 82 55 55 60 53 26
19 69 130 135 131 114 92 86 88 87 92 98 104 108 113 120 126 127 129 130 130 134 138 143 143 137 129 125 124 131 133 135 129 125 131 134 117 106 89 67 43 47 51 46
18 50 196 128 128 126 117 105 106 103 101 104 109 111 115 122 127 128 129 132 134 137 141 141 140 136 133 133 132 132 131 135 139 145 148 147 141 138 140 128 102 55 71 74
Height
1492 1492 1488 1483 1480 1480 1477 1478 1479 1475 1472 1479 1484 1489 1492 1494 1498 1502 1507 1510 1515 1521 1525 1528 1530 1534 1536 1537 1538 1541 1542 1543 1544 1545 1546 1548 1549 1549 1549 1549 1548 1549 1549 1550
1488 1488 1480 1476 1475 1476 1476 1478 1477 1474 1471 1476 1482 1486 1487 1492 1496 1499 1503 1508 1514 1520 1524 1528 1531 1534 1536 1537 1538 1540 1542 1542 1543 1544 1545 1547 1547 1548 1548 1548 1548 1548 1548 1548
1484 1479 1476 1476 1476 1479 1478 1479 1477 1477 1476 1477 1484 1490 1490 1490 1494 1498 1502 1506 1511 1516 1521 1527 1530 1533 1535 1537 1538 1539 1540 1541 1542 1543 1544 1545 1546 1547 1548 1548 1547 1547 1547 1547
1478 1476 1477 1478 1478 1478 1482 1473 1473 1476 1481 1486 1486 1499 1490 1488 1492 1495 1500 1505 1510 1515 1521 1525 1529 1532 1534 1536 1537 1539 1539 1540 1541 1542 1543 1544 1545 1546 1546 1546 1546 1545 1546 1546
1479 1475 1477 1479 1478 1476 1477 1471 1473 1476 1481 1487 1486 1494 1492 1487 1493 1495 1499 1505 1509 1514 1519 1524 1527 1531 1534 1535 1537 1538 1538 1539 1540 1541 1542 1543 1544 1544 1544 1544 1543 1544 1544 1544
1477 1473 1474 1475 1474 1475 1474 1475 1475 1478 1483 1497 1488 1491 1496 1491 1492 1494 1499 1505 1509 1513 1518 1523 1527 1530 1533 1535 1536 1537 1538 1539 1539 1540 1541 1542 1543 1543 1544 1543 1543 1543 1543 1543
1482 1475 1473 1474 1476 1476 1477 1486 1498 1504 1506 1503 1488 1489 1492 1486 1486 1492 1496 1503 1509 1513 1517 1522 1526 1530 1533 1535 1536 1537 1538 1538 1539 1540 1541 1542 1542 1542 1543 1542 1542 1542 1542 1541
1493 1487 1475 1473 1476 1480 1480 1484 1504 1517 1517 1507 1496 1493 1491 1484 1488 1492 1497 1503 1509 1514 1517 1521 1526 1529 1532 1534 1536 1537 1538 1539 1539 1540 1541 1541 1541 1541 1541 1541 1541 1540 1540 1539
1493 1489 1474 1472 1473 1476 1482 1484 1483 1498 1504 1508 1497 1495 1493 1489 1490 1495 1499 1505 1510 1513 1517 1521 1526 1529 1532 1534 1535 1537 1538 1539 1539 1539 1540 1540 1540 1540 1540 1540 1539 1538 1538 1537
1487 1492 1478 1473 1472 1473 1476 1480 1485 1495 1512 1515 1503 1504 1505 1499 1497 1496 1499 1505 1509 1513 1518 1522 1526 1529 1532 1534 1536 1537 1538 1539 1539 1539 1540 1540 1540 1539 1539 1538 1538 1537 1536 1536
1484 1493 1485 1478 1479 1479 1478 1480 1483 1486 1491 1504 1509 1509 1495 1495 1494 1496 1500 1505 1509 1513 1518 1522 1526 1529 1532 1534 1536 1537 1538 1539 1539 1539 1539 1539 1539 1538 1538 1538 1537 1536 1535 1535
1482 1489 1492 1483 1475 1473 1474 1478 1481 1493 1493 1489 1498 1507 1491 1493 1493 1497 1501 1505 1509 1514 1519 1523 1526 1530 1532 1534 1536 1537 1538 1539 1539 1539 1539 1539 1538 1538 1538 1537 1536 1535 1535 1534
1485 1490 1499 1494 1490 1481 1479 1477 1478 1481 1486 1494 1501 1505 1493 1494 1497 1501 1503 1507 1510 1515 1520 1523 1527 1530 1532 1534 1536 1537 1538 1539 1540 1540 1540 1539 1539 1538 1537 1537 1536 1535 1534 1534
1488 1491 1500 1507 1499 1490 1487 1481 1478 1481 1490 1496 1496 1498 1496 1497 1499 1503 1506 1510 1513 1517 1520 1524 1527 1530 1533 1535 1536 1538 1539 1539 1540 1540 1539 1539 1538 1538 1537 1537 1536 1535 1535 1534
1488 1492 1493 1492 1486 1484 1484 1482 1479 1482 1486 1493 1494 1496 1497 1497 1501 1505 1509 1512 1515 1519 1522 1524 1527 1531 1533 1535 1536 1538 1539 1539 1539 1539 1539 1539 1539 1538 1537 1537 1536 1535 1535 1534
1487 1492 1492 1494 1485 1483 1484 1482 1481 1482 1484 1488 1492 1497 1496 1497 1501 1505 1510 1514 1516 1519 1523 1525 1528 1531 1533 1534 1536 1537 1538 1539 1539 1539 1539 1539 1538 1538 1537 1537 1536 1536 1535 1534
1488 1493 1497 1496 1486 1486 1494 1486 1483 1484 1482 1486 1494 1498 1498 1500 1503 1507 1511 1514 1516 1519 1522 1525 1528 1530 1532 1534 1535 1537 1538 1538 1539 1539 1539 1539 1539 1538 1538 1537 1537 1536 1535 1534
1490 1494 1495 1495 1494 1505 1493 1482 1482 1484 1486 1487 1492 1496 1499 1503 1506 1509 1512 1515 1517 1520 1523 1525 1528 1530 1532 1534 1535 1536 1537 1538 1539 1539 1539 1539 1539 1539 1538 1538 1537 1536 1535 1535
1487 1492 1496 1499 1502 1497 1490 1486 1485 1488 1492 1492 1494 1498 1502 1504 1507 1512 1514 1516 1518 1520 1523 1525 1528 1530 1532 1533 1535 1536 1537 1538 1539 1539 1539 1539 1539 1539 1538 1538 1537 1537 1536 1536
1484 1487 1494 1497 1505 1508 1498 1488 1487 1489 1498 1496 1497 1500 1502 1504 1508 1514 1515 1517 1519 1521 1523 1526 1528 1530 1532 1533 1535 1536 1537 1538 1539 1539 1540 1539 1539 1539 1539 1539 1538 1538 1537 1537
1488 1488 1492 1495 1500 1498 1493 1489 1487 1497 1504 1499 1499 1501 1503 1505 1508 1513 1515 1518 1520 1522 1524 1526 1528 1530 1532 1534 1535 1536 1538 1539 1539 1540 1540 1540 1540 1540 1540 1540 1539 1539 1539 1539
1488 1490 1492 1492 1500 1505 1494 1491 1496 1501 1500 1500 1501 1503 1505 1507 1510 1513 1516 1518 1521 1523 1525 1527 1529 1531 1533 1534 1536 1537 1538 1539 1540 1540 1540 1541 1541 1541 1541 1541 1541 1541 1541 1540
1486 1490 1490 1494 1500 1499 1498 1498 1500 1501 1502 1503 1504 1505 1508 1510 1512 1515 1518 1520 1522 1525 1527 1529 1531 1532 1533 1535 1536 1537 1538 1539 1540 1541 1541 1541 1542 1542 1542 1542 1542 1542 1542 1543
1484 1486 1489 1493 1495 1497 1499 1500 1502 1503 1504 1505 1506 1508 1509 1511 1514 1517 1519 1522 1524 1526 1528 1530 1532 1533 1534 1535 1537 1538 1539 1540 1541 1541 1542 1542 1543 1544 1544 1544 1544 1544 1544 1544
1485 1486 1489 1493 1496 1498 1501 1502 1503 1505 1506 1507 1509 1510 1512 1513 1516 1518 1520 1523 1525 1527 1529 1531 1533 1534 1535 1536 1537 1539 1540 1540 1541 1542 1543 1544 1544 1545 1545 1545 1546 1546 1546 1546
1486 1488 1490 1493 1496 1498 1502 1503 1505 1507 1508 1510 1511 1513 1514 1516 1518 1520 1522 1524 1526 1528 1530 1532 1533 1535 1536 1537 1538 1539 1540 1541 1542 1543 1544 1545 1546 1546 1547 1547 1548 1548 1548 1548